This is the latest recevied weather packets stored in our database for station/object WX6HNX-12. If no packets are shown the sender has not sent any weather packets the latest 10 day(s).
| Time | Temp. | Humidity | Pressure | Rain* | Wind** | Luminosity | Snow |
|---|---|---|---|---|---|---|---|
| 1777919381 | 17.78° C | 48% | 1014.7 hPa | 0 mm | - | - | - |
| 1777919080 | 17.22° C | 50% | 1014.7 hPa | 0 mm | - | - | - |
| 1777918481 | 16.67° C | 50% | 1014.8 hPa | 0 mm | - | - | - |
| 1777918182 | 17.22° C | 49% | 1015 hPa | 0 mm | - | - | - |
| 1777917880 | 17.22° C | 48% | 1015.1 hPa | 0 mm | - | - | - |
| 1777917580 | 17.22° C | 50% | 1015.1 hPa | 0 mm | - | - | - |
| 1777917281 | 16.67° C | 51% | 1015.1 hPa | 0 mm | - | - | - |
| 1777916980 | 16.11° C | 52% | 1015.1 hPa | 0 mm | - | - | - |
| 1777916681 | 16.11° C | 52% | 1015.2 hPa | 0 mm | - | - | - |
| 1777916149 | 15.56° C | 54% | 1015.3 hPa | 0 mm | - | - | - |
| 1777915549 | 15.56° C | 53% | 1015.2 hPa | 0 mm | - | - | - |
| 1777915249 | 15.56° C | 53% | 1015 hPa | 0 mm | - | - | - |
| 1777914948 | 15.56° C | 53% | 1015.1 hPa | 0 mm | - | - | - |
| 1777914649 | 15.56° C | 53% | 1015.1 hPa | 0 mm | - | - | - |
| 1777914349 | 15.56° C | 53% | 1015.1 hPa | 0 mm | - | - | - |
| 1777914044 | 15.56° C | 53% | 1015.1 hPa | 0 mm | - | - | - |
| 1777913748 | 15.56° C | 53% | 1015.1 hPa | 0 mm | - | - | - |
| 1777913450 | 15.56° C | 53% | 1015 hPa | 0 mm | - | - | - |
| 1777913148 | 15.56° C | 54% | 1015.1 hPa | 0 mm | - | - | - |
| 1777912844 | 15.56° C | 54% | 1015.1 hPa | 0 mm | - | - | - |
| 1777912547 | 15.56° C | 55% | 1015.1 hPa | 0 mm | - | - | - |
| 1777912248 | 15.56° C | 52% | 1015.1 hPa | 0 mm | - | - | - |
| 1777911944 | 16.11° C | 53% | 1015 hPa | 0 mm | - | - | - |
| 1777911648 | 15.56° C | 53% | 1015 hPa | 0 mm | - | - | - |
| 1777911349 | 15.56° C | 54% | 1014.9 hPa | 0 mm | - | - | - |
* Rain latest hour (hover to see other rain measurements)
** Current wind speed in m/s (hover to see current wind gust speed)